{"data":{"norad_id":69205,"epoch":"2026-09-20T00:08:22.201728Z","epoch_age_seconds":69611,"freshness":"FRESH","line1":"1 69205U 26114Z   26263.00581252  .00017425  00000+0  52560-3 0  9997","line2":"2 69205  53.1585 115.7873 0001420  46.1204 313.9916 15.34403630 19378","mean_motion":15.3440363,"eccentricity":0.000142,"inclination_deg":53.1585,"raan_deg":115.7873,"arg_perigee_deg":46.1204,"mean_anomaly_deg":313.9916,"bstar":0.0005256,"rev_number":1937,"period_min":93.847536061942,"perigee_km":461.72105332133,"apogee_km":463.66384888545,"semimajor_km":6840.8294511034,"source":"CELESTRAK","updated_at":"2026-09-20T09:00:44.100424Z"}}